Location: Eastchurch
(51.4000°N, 0.8667°E)
Time: 23:18:35
(UTC+00:00)

Cosmos 2366 rocket - Pass Details

Date: 19 January 2026
Orbit: 955 x 996 km, 82.9° (Epoch: 17 February)

Event Time Altitude Azimuth Distance (km) Brightness Sun altitude
Rises 17:08:33 0° 349° (N) 3,719 6.9 -7.0°
Reaches altitude 10° 17:11:05 10° 350° (N) 2,770 6.3 -7.3°
Maximum altitude 17:17:28 88° 266° (W) 1,004 4.1 -8.3°
Drops below altitude 10° 17:23:49 10° 173° (S) 2,755 6.6 -9.2°
Sets 17:26:20 0° 173° (S) 3,698 7.2 -9.6°
